KD8BMB Weather Reports


Display with metric or nautical units.
time (UTC)temp
F
wind
direction
speed
MPH
gust
MPH
rain 1hr
in
rain 24hr
in
rain mn
in
humidity
%
barometer
mb
20260506195131 52 330 2.0 2.0 0.00 0.00 0.00 48 1012.0
20260506194629 52 271 1.0 1.0 0.00 0.00 0.00 49 1012.2
20260506194125 52 321 5.0 6.0 0.00 0.00 0.00 47 1012.4
20260506193623 51 278 1.0 3.0 0.00 0.00 0.00 48 1012.4
20260506193120 51 249 0.0 0.0 0.00 0.00 0.00 48 1012.5
20260506192617 51 327 4.0 5.0 0.00 0.00 0.00 50 1012.6
20260506192113 51 356 3.0 3.0 0.00 0.00 0.00 50 1012.5
20260506191609 51 323 3.0 5.0 0.00 0.00 0.00 50 1012.3
20260506191105 53 355 5.0 6.0 0.00 0.00 0.00 47 1012.6
20260506190603 52 294 4.0 5.0 0.00 0.00 0.00 48 1012.6
20260506190100 51 288 6.0 9.0 0.00 0.00 0.00 49 1012.6
20260506185557 51 286 3.0 5.0 0.00 0.00 0.00 49 1012.6
20260506185053 51 244 1.0 1.0 0.00 0.00 0.00 50 1012.5
20260506184551 51 290 4.0 5.0 0.00 0.00 0.00 49 1012.5
20260506184048 51 256 3.0 3.0 0.00 0.00 0.00 49 1012.6
20260506183544 53 332 4.0 9.0 0.00 0.00 0.00 47 1012.9
20260506183040 53 284 0.0 1.0 0.00 0.00 0.00 46 1012.7
20260506182538 52 228 3.0 6.0 0.00 0.00 0.00 48 1012.9
20260506182035 51 237 0.0 0.0 0.00 0.00 0.00 49 1012.7
20260506181533 51 241 5.0 7.0 0.00 0.00 0.00 49 1012.9
20260506181029 51 312 2.0 2.0 0.00 0.00 0.00 49 1012.9
20260506180526 51 228 5.0 8.0 0.00 0.00 0.00 49 1012.7
20260506180023 50 341 3.0 5.0 0.00 0.00 0.00 49 1013.0
20260506175519 50 316 0.0 0.0 0.00 0.00 0.00 52 1012.9
20260506175016 50 300 0.0 0.0 0.00 0.00 0.00 50 1012.7
20260506174515 50 326 2.0 3.0 0.00 0.00 0.00 49 1013.0
20260506174010 50 56 0.0 1.0 0.00 0.00 0.00 52 1013.4
20260506173508 50 357 0.0 0.0 0.00 0.00 0.00 53 1013.2
20260506173005 49 25 1.0 2.0 0.00 0.00 0.00 54 1013.2
20260506172502 49 2 3.0 6.0 0.00 0.00 0.00 53 1013.3
20260506171958 50 1 1.0 2.0 0.00 0.00 0.00 53 1012.9
20260506171455 50 24 0.0 0.0 0.00 0.00 0.00 53 1013.1
20260506170953 51 309 0.0 0.0 0.00 0.00 0.00 54 1013.0
20260506170449 52 10 5.0 8.0 0.00 0.00 0.00 54 1013.2
20260506165942 51 319 0.0 0.0 0.00 0.00 0.00 53 1013.0
20260506165441 50 302 6.0 8.0 0.00 0.00 0.00 54 1013.0
20260506164936 50 43 4.0 5.0 0.00 0.00 0.00 54 1013.2
20260506164433 49 278 1.0 2.0 0.00 0.00 0.00 58 1013.1
20260506163931 49 74 0.0 0.0 0.00 0.00 0.00 58 1013.1
20260506163425 50 47 0.0 1.0 0.00 0.00 0.00 55 1013.3
20260506162915 52 124 0.0 0.0 0.00 0.00 0.00 54 1013.5
20260506162413 51 234 0.0 1.0 0.00 0.00 0.00 57 1013.5
20260506161910 48 46 1.0 1.0 0.00 0.00 0.00 61 1013.6
20260506161408 48 304 0.0 0.0 0.00 0.00 0.00 60 1013.3
20260506160900 50 115 0.0 2.0 0.00 0.00 0.00 58 1013.4
20260506160356 49 298 0.0 1.0 0.00 0.00 0.00 61 1013.5
20260506155854 47 4 1.0 2.0 0.00 0.00 0.00 65 1013.5
20260506155351 48 36 5.0 7.0 0.00 0.00 0.00 63 1013.5
20260506153508 48 111 1.0 2.0 0.00 0.00 0.00 62 1013.3
20260506153006 47 311 3.0 5.0 0.00 0.00 0.00 63 1013.4
20260506152502 47 58 5.0 7.0 0.00 0.00 0.00 64 1013.2
20260506152001 48 344 4.0 6.0 0.00 0.00 0.00 63 1013.2
20260506151458 48 233 0.0 0.0 0.00 0.00 0.00 63 1013.1
20260506150955 46 342 1.0 2.0 0.00 0.00 0.00 64 1013.1
20260506150451 46 334 4.0 5.0 0.00 0.00 0.00 67 1013.1
20260506145948 46 11 3.0 5.0 0.00 0.00 0.00 67 1013.2
20260506145444 46 351 1.0 1.0 0.00 0.00 0.00 67 1013.1
20260506144942 47 278 3.0 3.0 0.00 0.00 0.00 66 1013.2
20260506144438 46 49 3.0 6.0 0.00 0.00 0.00 67 1013.0
20260506143937 46 40 2.0 2.0 0.00 0.00 0.00 67 1013.2
20260506143433 46 33 4.0 5.0 0.00 0.00 0.00 66 1012.7
20260506142932 46 356 1.0 2.0 0.00 0.00 0.00 65 1013.0
20260506142430 47 13 1.0 2.0 0.00 0.00 0.00 65 1012.9
20260506141927 47 68 0.0 1.0 0.00 0.00 0.00 67 1012.5
20260506141425 47 68 1.0 2.0 0.00 0.00 0.00 67 1012.9
20260506140923 46 76 1.0 1.0 0.00 0.00 0.00 69 1012.5
20260506140420 46 46 3.0 5.0 0.00 0.00 0.00 68 1012.7
20260506135917 44 61 4.0 6.0 0.00 0.00 0.00 71 1012.9
20260506135414 46 64 0.0 1.0 0.00 0.00 0.00 71 1012.4
20260506134910 46 34 2.0 2.0 0.00 0.00 0.00 70 1012.6
20260506134406 46 358 2.0 3.0 0.00 0.00 0.00 71 1012.7
20260506133903 44 52 1.0 2.0 0.00 0.00 0.00 72 1012.5
20260506133400 44 88 3.0 5.0 0.00 0.00 0.00 73 1012.3
20260506132857 44 34 2.0 3.0 0.00 0.00 0.00 74 1012.2
20260506132354 44 349 0.0 1.0 0.00 0.00 0.00 74 1012.4
20260506131852 43 340 4.0 6.0 0.00 0.00 0.00 75 1012.3
20260506131348 44 30 1.0 2.0 0.00 0.00 0.00 75 1012.3
20260506130845 43 57 2.0 2.0 0.00 0.00 0.00 75 1012.2
20260506130341 42 341 1.0 3.0 0.00 0.00 0.00 76 1012.3
20260506125840 43 66 0.0 1.0 0.00 0.00 0.00 75 1012.1
20260506125338 43 54 0.0 0.0 0.00 0.00 0.00 74 1012.2
20260506124836 42 24 2.0 2.0 0.00 0.00 0.00 74 1012.0
20260506124332 43 4 1.0 2.0 0.00 0.00 0.00 73 1012.3
20260506123830 42 11 1.0 1.0 0.00 0.00 0.00 73 1012.2
20260506123328 41 57 1.0 2.0 0.00 0.00 0.00 74 1012.1
20260506122825 42 72 3.0 5.0 0.00 0.00 0.00 75 1011.9
20260506122322 41 353 0.0 0.0 0.00 0.00 0.00 77 1011.8
20260506121820 40 47 2.0 2.0 0.00 0.00 0.00 78 1011.8
20260506121317 40 70 1.0 1.0 0.00 0.00 0.00 77 1011.5
20260506120814 40 77 1.0 2.0 0.00 0.00 0.00 78 1011.7
20260506120312 40 61 0.0 1.0 0.00 0.00 0.00 79 1011.5
20260506115809 39 45 1.0 1.0 0.00 0.00 0.00 80 1011.7
20260506115307 39 65 4.0 7.0 0.00 0.00 0.00 80 1011.5
20260506114805 39 65 2.0 2.0 0.00 0.00 0.00 84 1011.5
20260506114303 39 295 3.0 5.0 0.00 0.00 0.00 84 1011.4
20260506113801 39 355 2.0 2.0 0.00 0.00 0.00 85 1011.5
20260506113258 39 109 1.0 2.0 0.00 0.00 0.00 85 1011.5
20260506112754 39 9 5.0 6.0 0.00 0.00 0.00 86 1011.3
20260506112252 39 17 2.0 2.0 0.00 0.00 0.00 86 1011.4
20260506111749 38 0 2.0 3.0 0.00 0.00 0.00 87 1011.3
20260506111247 38 11 2.0 2.0 0.00 0.00 0.00 88 1011.1
20260506110744 37 74 0.0 1.0 0.00 0.00 0.00 90 1010.7
20260506110242 37 16 2.0 3.0 0.00 0.00 0.00 91 1011.1
20260506105738 36 25 3.0 3.0 0.00 0.00 0.00 92 1010.8
20260506105235 36 325 0.0 0.0 0.00 0.00 0.00 92 1010.8
20260506104732 36 323 0.0 0.0 0.00 0.00 0.00 92 1010.8
20260506104230 36 320 0.0 0.0 0.00 0.00 0.00 91 1010.7
20260506103727 36 325 0.0 0.0 0.00 0.00 0.00 90 1010.4
20260506103224 37 329 0.0 0.0 0.00 0.00 0.00 89 1010.4
20260506102722 37 315 0.0 0.0 0.00 0.00 0.00 89 1010.2
20260506102220 37 311 0.0 0.0 0.00 0.00 0.00 88 1010.2
20260506101716 37 274 0.0 0.0 0.00 0.00 0.00 87 1009.9
20260506101213 38 348 0.0 0.0 0.00 0.00 0.00 86 1010.0
20260506100711 38 339 0.0 0.0 0.00 0.00 0.00 86 1009.8
20260506100209 38 5 1.0 2.0 0.00 0.00 0.00 85 1009.6
20260506095707 39 324 0.0 0.0 0.00 0.00 0.00 85 1010.0
20260506095204 39 328 0.0 0.0 0.00 0.00 0.00 84 1009.5
20260506094701 39 349 0.0 0.0 0.00 0.00 0.00 83 1009.3
20260506094158 39 7 0.0 0.0 0.00 0.00 0.00 83 1009.5
20260506093657 39 42 0.0 0.0 0.00 0.00 0.00 83 1009.5
20260506093154 40 39 1.0 1.0 0.00 0.00 0.00 83 1009.3
20260506092651 40 14 0.0 0.0 0.00 0.00 0.00 82 1009.7
20260506092149 40 53 0.0 1.0 0.00 0.00 0.00 83 1009.6
20260506091647 40 32 1.0 1.0 0.00 0.00 0.00 82 1009.5
20260506091144 40 13 0.0 0.0 0.00 0.00 0.00 82 1009.4
20260506090642 40 8 0.0 0.0 0.00 0.00 0.00 83 1009.3
20260506090138 40 33 1.0 2.0 0.00 0.00 0.00 83 1009.4
20260506085635 41 52 1.0 1.0 0.00 0.00 0.00 84 1009.5
20260506085131 41 19 1.0 1.0 0.00 0.00 0.00 86 1009.5
20260506084628 41 330 0.0 0.0 0.00 0.00 0.00 86 1009.5
20260506084124 41 343 0.0 0.0 0.00 0.00 0.00 87 1009.5
20260506083621 41 350 1.0 1.0 0.00 0.00 0.00 88 1009.5
20260506083119 41 5 2.0 2.0 0.00 0.00 0.00 91 1009.6
20260506082616 41 306 0.0 0.0 0.00 0.00 0.00 92 1009.6
20260506082111 42 21 0.0 1.0 0.00 0.00 0.00 93 1009.3
20260506081610 42 15 1.0 1.0 0.00 0.00 0.00 93 1009.5
20260506081107 42 324 0.0 0.0 0.00 0.00 0.00 94 1009.7
20260506080605 42 316 0.0 0.0 0.00 0.00 0.00 93 1009.6
20260506073044 43 325 0.0 0.0 0.00 0.00 0.00 91 1009.0
20260506072542 44 311 0.0 0.0 0.00 0.00 0.00 91 1009.2
20260506072039 44 313 0.0 0.0 0.00 0.00 0.00 91 1009.0
20260506071537 44 320 0.0 0.0 0.00 0.00 0.00 90 1009.3
20260506071034 44 311 1.0 1.0 0.00 0.00 0.00 90 1009.1
20260506070531 44 300 0.0 1.0 0.00 0.00 0.00 90 1008.9
20260506062509 45 324 0.0 0.0 0.00 0.00 0.00 86 1009.0
20260506062005 45 3 0.0 0.0 0.00 0.00 0.00 85 1009.1
20260506061501 45 309 0.0 0.0 0.00 0.00 0.00 85 1009.1
20260506060959 45 298 0.0 0.0 0.00 0.00 0.00 84 1009.3
20260506060457 46 308 0.0 0.0 0.00 0.00 0.00 84 1009.2
20260506050926 46 290 2.0 2.0 0.00 0.00 0.00 70 1008.8
20260506050424 47 302 0.0 0.0 0.00 0.00 0.00 67 1009.0
20260506044914 47 310 1.0 1.0 0.00 0.00 0.00 65 1009.1
20260506044412 47 299 0.0 0.0 0.00 0.00 0.00 64 1008.8
20260506043909 47 281 0.0 0.0 0.00 0.00 0.00 65 1008.5
20260506043406 47 326 1.0 1.0 0.00 0.00 0.00 64 1008.6
20260506042904 47 302 2.0 2.0 0.00 0.00 0.00 65 1008.6
20260506042403 47 275 0.0 0.0 0.00 0.00 0.00 66 1008.6
20260506041901 47 308 0.0 0.0 0.00 0.00 0.00 66 1008.6
20260506041358 47 267 0.0 0.0 0.00 0.00 0.00 65 1008.4
20260506040855 47 273 0.0 0.0 0.00 0.00 0.00 65 1008.7
20260506040353 47 269 0.0 0.0 0.00 0.00 0.00 66 1008.7
20260506035849 47 285 0.0 1.0 0.00 0.01 0.01 65 1008.7
20260506035346 47 284 0.0 0.0 0.00 0.01 0.01 65 1008.5
20260506034843 47 253 1.0 1.0 0.00 0.01 0.01 66 1008.8
20260506034340 47 288 0.0 0.0 0.00 0.01 0.01 66 1008.6
20260506033837 47 253 1.0 1.0 0.00 0.01 0.01 65 1008.7
20260506033334 47 262 2.0 2.0 0.00 0.01 0.01 65 1008.4
20260506032831 47 301 0.0 0.0 0.00 0.01 0.01 65 1008.5
20260506032328 47 277 0.0 0.0 0.00 0.01 0.01 64 1008.2
20260506031825 47 284 1.0 1.0 0.00 0.01 0.01 63 1008.5
20260506031322 47 267 0.0 1.0 0.00 0.01 0.01 64 1008.6
20260506030820 47 238 0.0 0.0 0.00 0.01 0.01 62 1008.2
20260506030318 47 229 1.0 1.0 0.00 0.01 0.01 62 1008.4
20260506025814 48 278 0.0 0.0 0.00 0.01 0.01 61 1008.4
20260506025311 48 260 0.0 0.0 0.00 0.01 0.01 61 1008.2
20260506024808 48 267 1.0 1.0 0.00 0.01 0.01 60 1008.1
20260506024304 48 292 0.0 1.0 0.00 0.01 0.01 61 1008.2
20260506023800 48 274 1.0 1.0 0.00 0.01 0.01 60 1008.6
20260506023258 48 241 0.0 0.0 0.00 0.01 0.01 60 1008.0
20260506022754 49 235 2.0 2.0 0.00 0.01 0.01 58 1008.1
20260506022252 49 281 1.0 1.0 0.00 0.01 0.01 59 1008.0
20260506021750 49 282 1.0 1.0 0.00 0.01 0.01 58 1008.2
20260506021247 49 284 1.0 1.0 0.00 0.01 0.01 58 1008.0
20260506020743 49 244 1.0 2.0 0.00 0.01 0.01 57 1008.2
20260506020241 49 252 0.0 0.0 0.00 0.01 0.01 57 1008.1
20260506015739 50 257 2.0 2.0 0.00 0.01 0.01 56 1007.9
20260506015236 50 250 2.0 2.0 0.00 0.01 0.01 56 1007.8
20260506014733 50 283 1.0 1.0 0.00 0.01 0.01 55 1007.9
20260506014229 50 277 0.0 0.0 0.00 0.01 0.01 55 1007.7
20260506013726 50 276 6.0 7.0 0.00 0.01 0.01 54 1007.7
20260506013224 50 295 0.0 1.0 0.00 0.01 0.01 55 1007.6
20260506012720 51 265 0.0 1.0 0.00 0.01 0.01 54 1007.7
20260506012217 51 299 0.0 1.0 0.00 0.01 0.01 54 1007.6
20260506011714 51 241 2.0 3.0 0.00 0.01 0.01 53 1007.3
20260506011210 51 308 0.0 1.0 0.00 0.01 0.01 53 1007.6
20260506010709 51 261 0.0 0.0 0.00 0.01 0.01 53 1007.4
20260506010206 51 238 0.0 0.0 0.00 0.01 0.01 53 1007.4
20260506005703 51 238 4.0 5.0 0.00 0.01 0.01 52 1007.3
20260506005200 52 291 1.0 2.0 0.00 0.01 0.01 51 1007.3
20260506004655 51 272 3.0 3.0 0.00 0.01 0.01 51 1007.2
20260506004153 52 272 0.0 1.0 0.00 0.01 0.01 52 1007.3
20260506003649 52 125 1.0 1.0 0.00 0.01 0.01 51 1007.5
20260506003146 52 231 3.0 5.0 0.00 0.01 0.01 50 1007.3
20260506002641 52 212 3.0 3.0 0.00 0.01 0.01 50 1007.4
20260506002138 52 287 3.0 5.0 0.00 0.01 0.01 50 1007.5
20260506001633 52 198 2.0 2.0 0.00 0.01 0.01 49 1007.4
20260506001131 52 247 4.0 5.0 0.00 0.01 0.01 48 1007.3
20260506000628 53 258 1.0 1.0 0.00 0.01 0.01 49 1007.3
20260506000125 53 268 4.0 5.0 0.00 0.01 0.01 48 1007.1
20260505235624 53 292 5.0 8.0 0.00 0.01 0.01 47 1007.0
20260505235120 53 244 5.0 7.0 0.00 0.01 0.01 47 1006.9
20260505234617 53 229 6.0 7.0 0.00 0.01 0.01 47 1006.8
20260505234114 53 307 2.0 2.0 0.00 0.01 0.01 49 1006.8
20260505233611 53 323 2.0 3.0 0.00 0.01 0.01 48 1006.8
20260505233109 53 248 2.0 2.0 0.00 0.01 0.01 47 1006.6
20260505232606 54 335 7.0 8.0 0.00 0.01 0.01 46 1006.5
20260505232104 54 205 6.0 8.0 0.00 0.01 0.01 46 1006.8
20260505231600 54 227 3.0 5.0 0.00 0.01 0.01 45 1006.7
20260505231059 54 233 5.0 6.0 0.00 0.01 0.01 45 1006.7
20260505230556 54 269 7.0 9.0 0.00 0.01 0.01 44 1006.6
20260505230052 55 261 5.0 6.0 0.00 0.01 0.01 43 1006.4
20260505225549 55 271 3.0 3.0 0.00 0.01 0.01 43 1006.6
20260505225045 55 291 1.0 1.0 0.00 0.01 0.01 43 1006.7
20260505224543 55 289 3.0 3.0 0.00 0.01 0.01 43 1006.6
20260505224040 55 277 3.0 5.0 0.00 0.01 0.01 42 1006.7
20260505223537 55 209 3.0 3.0 0.00 0.01 0.01 42 1006.8
20260505223033 55 276 9.0 13.0 0.00 0.01 0.01 41 1007.0
20260505222529 56 324 10.0 13.0 0.00 0.01 0.01 41 1006.7
20260505222026 56 238 1.0 2.0 0.00 0.01 0.01 43 1006.7
20260505221523 56 311 3.0 5.0 0.00 0.01 0.01 42 1006.6
20260505221019 56 249 5.0 7.0 0.00 0.01 0.01 43 1006.5
20260505220517 56 265 3.0 3.0 0.00 0.01 0.01 42 1006.7
20260505220015 56 256 7.0 9.0 0.00 0.01 0.01 41 1006.8
20260505215512 56 243 11.0 13.0 0.00 0.01 0.01 42 1006.7
20260505215010 57 249 3.0 5.0 0.00 0.01 0.01 42 1006.5
20260505214508 57 206 2.0 2.0 0.00 0.01 0.01 43 1006.7
20260505214004 56 319 5.0 7.0 0.00 0.01 0.01 42 1006.7
20260505213502 57 236 2.0 3.0 0.00 0.01 0.01 44 1006.7
20260505212958 57 226 6.0 9.0 0.00 0.01 0.01 42 1006.4
20260505212455 57 285 2.0 3.0 0.00 0.01 0.01 43 1006.6
20260505211952 57 290 2.0 3.0 0.00 0.01 0.01 44 1006.6
20260505211449 57 246 3.0 6.0 0.00 0.01 0.01 43 1006.8
20260505210945 57 259 3.0 5.0 0.00 0.01 0.01 44 1006.7
20260505210443 57 282 2.0 2.0 0.00 0.01 0.01 44 1006.7
20260505205939 57 198 1.0 2.0 0.00 0.01 0.01 46 1006.6
20260505205438 57 294 4.0 7.0 0.00 0.01 0.01 45 1006.6
20260505204934 57 236 3.0 5.0 0.00 0.01 0.01 45 1006.6
20260505204432 58 247 4.0 6.0 0.00 0.01 0.01 49 1006.5
20260505203929 57 229 2.0 2.0 0.00 0.01 0.01 50 1006.5
20260505203425 57 307 3.0 3.0 0.00 0.01 0.01 49 1006.5
20260505202922 58 199 2.0 3.0 0.00 0.01 0.01 48 1006.5
20260505202418 57 241 5.0 6.0 0.00 0.01 0.01 52 1006.8
20260505201915 57 211 2.0 2.0 0.00 0.01 0.01 55 1006.5
20260505201412 57 291 6.0 7.0 0.00 0.01 0.01 53 1006.7
20260505200910 57 208 5.0 9.0 0.00 0.01 0.01 54 1006.9
20260505200407 57 237 3.0 5.0 0.00 0.01 0.01 54 1006.8
20260505195902 57 219 5.0 6.0 0.00 0.01 0.01 51 1006.4